Wind_Speed
15 14 15 16 16 16 16 16 16 16 16 16 17 17 18 18 19 20 20 19 18 19 19 19 19 19 20 20 23 24 24 27 26 23 17 16 14 12 15 17 16 16 15 13 9 7 5 2 2 4 5 4 2 1 2 2 2 2 2 3 4 5 5 7 9 7 5 5 7 4 3 6 1 4 2 2 6 3 3 5 3 6 7 8 13 25 31 29
16 15 15 16 16 16 17 16 16 16 15 15 15 16 17 17 19 19 19 19 19 19 19 20 19 19 19 20 22 24 25 26 22 20 19 11 8 11 17 18 16 13 13 14 10 4 1 1 4 7 5 2 2 2 3 2 3 4 3 4 6 5 5 7 8 6 4 5 4 1 3 5 3 2 1 2 6 2 4 4 3 6 8 11 17 24 26 27
16 16 15 15 16 17 17 16 17 17 16 15 15 16 17 17 18 18 18 18 18 19 19 19 20 19 19 20 21 25 25 20 14 11 6 4 5 12 18 17 16 13 15 17 11 5 4 3 5 7 4 3 2 2 3 2 3 3 3 4 7 5 5 5 6 7 6 4 2 1 0 1 2 2 1 1 3 0 3 2 1 4 7 10 12 17 22 22
15 15 15 15 16 16 16 16 17 17 17 16 16 16 16 16 17 18 18 18 18 18 18 19 19 18 18 19 20 25 21 12 6 4 6 6 7 13 18 16 13 13 18 18 12 6 6 5 3 4 5 3 2 2 4 4 3 3 4 5 5 5 5 6 7 7 6 3 3 2 3 5 4 1 2 3 2 4 4 4 5 7 11 14 12 13 17 17
16 15 15 15 16 16 16 17 17 17 17 17 17 17 16 16 16 18 18 17 18 18 18 19 19 18 18 18 19 22 13 4 1 7 9 11 11 15 20 19 11 10 17 17 12 8 7 6 3 3 3 3 3 3 4 6 4 2 4 5 4 5 4 8 7 6 5 2 1 1 2 3 2 1 3 5 2 5 4 4 9 12 13 15 15 14 15 14
16 16 16 16 17 17 17 17 18 17 17 17 17 17 18 17 17 18 18 17 17 17 18 17 18 18 17 17 18 15 3 2 3 7 4 15 16 18 19 20 14 3 14 15 11 7 6 4 3 4 3 3 5 5 5 5 4 2 4 3 5 6 5 5 5 6 5 4 4 3 3 1 2 3 2 6 6 7 5 5 7 10 13 17 16 15 15 15
16 16 17 17 17 18 18 18 18 17 17 17 18 18 18 19 18 18 17 17 16 16 17 17 17 17 17 18 14 6 2 7 14 11 8 19 20 19 19 18 14 3 10 13 10 7 5 5 4 4 5 3 5 5 4 3 4 5 4 3 5 7 7 5 3 3 4 6 6 2 1 0 1 4 1 2 6 5 4 1 8 12 15 18 15 14 16 16
17 17 17 17 17 18 17 17 18 17 17 17 18 19 19 19 19 19 18 16 16 16 16 16 16 15 16 14 8 3 3 14 23 18 18 22 18 17 19 17 13 9 2 7 7 7 6 7 6 4 4 4 5 5 5 3 3 6 5 3 3 5 6 6 4 3 2 5 4 1 2 5 5 2 2 6 4 1 3 9 13 14 15 14 14 16 15 14
17 18 18 18 18 18 18 17 17 18 18 18 19 20 21 21 21 21 19 17 16 15 15 15 15 14 14 8 3 4 6 11 16 13 13 15 16 19 20 17 16 14 6 4 2 6 6 6 6 5 5 5 5 4 5 6 4 6 7 4 3 4 5 4 4 4 3 3 3 3 3 7 6 1 3 6 2 6 9 13 14 15 15 13 14 14 12 11
18 18 19 19 18 18 18 17 18 18 18 19 21 22 23 23 23 22 20 17 15 15 14 13 13 14 12 4 1 4 9 9 8 5 8 16 23 26 22 17 17 14 7 8 7 2 4 5 5 3 3 2 4 4 4 6 5 5 7 6 7 7 6 3 3 4 2 2 5 5 4 6 4 2 3 3 6 10 12 13 13 15 15 14 11 10 9 10
18 19 19 19 19 19 19 19 19 18 19 21 22 24 25 25 23 21 19 17 15 14 13 12 12 13 10 4 2 6 7 7 6 9 19 28 31 29 24 21 17 11 5 5 5 3 3 4 3 2 1 2 4 3 3 5 3 3 6 4 7 8 7 5 5 4 1 3 5 6 4 5 2 2 6 3 8 10 15 14 14 14 13 13 12 10 9 9
19 19 20 19 20 20 20 20 20 19 20 21 21 23 26 25 22 20 18 17 15 14 12 11 11 11 10 7 10 17 13 11 17 26 32 33 30 26 22 19 15 10 5 3 5 4 3 5 3 1 2 2 3 2 3 4 2 2 5 3 5 5 6 7 7 5 4 3 5 7 2 6 1 5 6 5 9 10 15 16 14 12 10 11 11 10 9 9
19 20 20 20 20 20 21 20 19 20 21 21 21 23 25 25 23 21 18 16 15 14 13 11 10 10 8 6 13 25 26 25 30 34 30 24 23 20 16 14 12 9 7 6 8 6 4 6 3 3 2 1 3 2 1 0 2 2 3 3 3 2 5 6 5 5 7 5 6 7 3 6 6 8 6 5 11 13 13 14 13 11 9 9 9 9 8 9
20 20 21 21 21 21 21 20 19 19 21 22 22 23 25 25 25 22 17 16 15 13 12 10 9 8 6 9 17 24 24 24 27 27 21 18 19 16 11 7 6 5 5 7 10 9 8 9 4 3 2 1 3 2 3 3 1 2 2 2 3 3 5 6 4 8 7 5 7 8 4 6 7 9 5 6 12 16 14 13 12 9 9 9 9 9 9 8
21 21 21 21 22 21 21 21 20 19 21 22 22 24 28 27 26 22 17 16 14 11 11 10 8 5 4 11 18 17 12 12 17 16 14 14 14 10 8 7 6 3 3 6 8 8 6 5 3 2 2 3 2 3 3 3 2 2 4 3 3 4 5 7 3 10 9 3 5 9 4 5 8 9 5 7 10 13 14 14 12 10 9 10 9 9 9 7
21 22 22 21 21 21 21 21 20 19 20 21 22 25 27 26 25 20 16 15 12 10 9 7 5 4 4 6 8 7 5 7 9 11 12 14 12 10 10 11 8 4 4 5 7 7 5 3 2 3 1 2 4 3 3 1 2 1 2 4 3 5 3 5 3 6 10 3 2 6 4 3 5 6 6 9 10 11 11 12 12 11 10 11 10 9 8 7
22 22 22 22 21 21 20 20 20 20 19 21 24 26 25 22 19 16 13 10 8 7 6 5 3 3 6 8 7 5 5 6 9 15 17 17 15 14 11 6 4 2 2 3 4 4 4 4 2 2 2 2 4 5 3 4 5 2 1 3 2 4 4 4 4 4 9 7 4 6 5 5 5 2 5 9 12 12 12 12 11 11 11 11 10 9 9 9
22 23 22 22 22 20 20 20 20 20 20 22 25 25 22 15 11 9 3 2 2 1 3 5 2 1 6 7 6 6 5 8 17 21 19 15 11 9 8 3 3 1 3 1 3 4 3 2 2 2 2 4 5 7 6 6 6 3 3 4 2 3 6 7 4 3 7 7 6 7 5 9 8 1 4 8 11 14 15 15 13 12 13 12 10 10 9 10
23 22 22 22 22 21 21 20 21 20 21 24 24 21 15 8 6 5 6 7 5 2 1 3 5 2 5 6 5 7 10 14 19 16 10 8 8 3 4 3 2 2 5 2 3 5 4 2 3 4 6 8 8 8 7 4 7 8 5 5 5 4 5 5 4 5 6 6 5 7 7 9 9 4 4 8 9 10 12 14 12 11 11 10 10 10 9 11
22 22 23 22 22 22 21 21 21 21 23 23 20 15 9 5 4 2 4 3 4 5 4 5 8 7 9 12 8 7 14 15 11 6 5 8 9 5 2 3 0 2 4 4 4 3 5 4 6 8 8 8 8 8 8 3 7 9 6 5 5 4 3 4 4 6 3 5 5 8 8 9 10 8 5 7 8 8 10 13 12 10 10 10 11 11 12 12
23 23 23 22 23 22 22 22 21 22 24 18 12 8 2 2 3 3 3 5 9 11 11 10 12 12 14 18 14 7 10 9 5 9 14 15 8 3 2 3 3 3 4 5 3 1 4 7 9 7 6 8 9 8 9 4 6 6 6 6 4 4 3 4 4 4 1 3 4 6 8 9 11 7 3 7 10 10 12 14 14 14 12 10 12 13 12 9
24 23 23 23 23 23 24 23 21 24 20 10 7 3 2 3 4 6 6 6 9 12 15 14 13 14 18 24 22 9 4 6 9 13 13 7 5 5 2 3 4 4 5 4 2 2 6 8 6 6 6 9 9 8 9 6 5 5 3 6 3 3 2 5 4 3 1 3 3 5 8 8 7 4 2 7 9 8 11 13 14 16 14 12 13 13 12 10
25 24 24 23 23 25 24 21 23 21 11 6 8 3 3 5 5 8 6 7 9 8 10 11 10 11 14 19 17 9 6 6 8 11 7 2 4 5 4 4 5 5 6 7 7 6 6 5 6 7 7 10 8 8 10 7 3 4 3 5 2 3 2 2 4 3 0 2 2 6 5 4 4 3 2 6 5 3 7 10 9 10 13 13 13 12 12 14
26 25 25 23 24 26 23 23 22 13 6 12 13 5 3 5 6 7 4 4 8 5 6 9 8 7 10 10 7 9 7 6 5 7 6 6 4 4 4 4 5 5 7 10 8 5 4 4 7 8 7 10 9 8 11 7 4 3 4 4 3 2 4 4 3 4 3 2 2 5 2 5 3 2 3 4 3 3 5 8 8 8 10 9 8 9 12 14
27 27 26 24 24 27 26 23 15 5 10 18 10 3 5 4 4 4 2 3 6 4 3 5 4 5 9 6 6 9 4 5 8 6 4 6 4 3 3 3 4 7 8 9 6 4 5 5 7 10 7 9 9 8 10 9 5 3 3 5 6 5 3 2 3 5 3 1 2 3 1 5 4 4 5 3 4 5 4 8 11 10 9 9 9 10 12 12
28 27 28 26 25 29 25 12 6 7 14 13 4 2 6 5 2 2 2 2 5 2 0 1 2 3 5 4 6 5 1 3 11 14 11 9 4 1 3 3 3 6 7 7 4 2 4 4 5 11 8 8 9 7 8 9 7 3 5 7 7 6 4 0 2 3 3 4 3 2 5 5 5 4 6 4 5 7 5 8 12 10 9 10 10 10 10 11
28 28 28 26 25 28 20 8 9 10 8 5 1 3 7 6 2 3 1 2 3 1 1 0 1 1 2 5 7 5 1 2 4 12 15 13 6 1 3 4 3 4 5 6 3 2 6 6 4 9 10 7 7 5 7 10 8 3 6 9 8 6 6 3 1 2 2 3 4 4 4 3 4 5 4 4 5 6 7 10 11 10 11 12 11 10 11 11
29 29 28 28 27 26 20 15 14 10 10 9 5 4 7 6 1 1 1 2 1 1 1 1 1 2 2 6 9 5 2 2 3 4 10 14 9 1 2 5 4 5 6 7 5 2 7 9 5 7 9 6 5 5 7 10 7 5 7 10 8 7 6 4 2 2 2 2 4 5 1 3 5 5 1 3 5 8 10 13 13 12 13 13 12 11 11 10
29 29 30 30 29 25 18 14 12 13 15 10 5 6 7 3 1 2 2 1 1 2 1 1 1 3 1 4 6 6 4 3 2 1 6 11 10 3 1 5 5 6 6 7 5 2 5 9 7 6 6 5 5 6 9 10 5 6 8 7 4 4 5 5 3 2 2 2 4 6 2 2 4 5 1 3 5 8 10 11 12 12 12 12 12 12 10 9
30 31 32 31 28 23 14 10 15 16 15 13 11 9 6 1 1 2 1 1 1 1 1 1 0 1 1 2 3 6 5 4 3 1 3 3 6 3 2 3 4 4 4 4 4 4 2 5 7 6 4 5 7 6 8 10 6 7 9 7 5 4 3 3 2 2 2 2 6 7 5 4 3 5 3 5 6 8 9 8 9 11 12 14 13 11 10 8
33 35 35 31 26 20 10 7 11 10 8 11 11 5 1 1 1 1 2 2 1 2 1 1 1 1 1 2 2 4 4 5 3 2 3 2 3 3 2 2 3 4 4 3 5 7 3 2 4 5 6 6 8 6 6 8 8 8 6 5 5 2 3 3 3 2 3 5 6 6 6 5 3 5 4 7 8 8 9 10 11 15 16 15 12 10 9 7
37 39 36 29 22 15 10 6 2 3 8 6 3 1 2 3 1 3 2 2 2 2 0 1 2 1 2 2 2 3 3 3 3 3 4 4 4 4 4 3 3 4 5 5 6 5 4 2 3 3 8 9 8 7 4 5 6 7 6 6 6 1 1 2 2 2 4 5 4 5 4 2 5 8 7 11 12 10 11 12 13 16 15 12 10 9 8 7
39 38 32 22 13 10 14 11 5 10 8 7 5 2 4 3 2 4 2 2 2 1 1 2 4 3 3 4 2 3 3 2 3 3 3 5 5 4 4 5 3 2 4 5 6 5 3 2 3 4 7 9 10 9 6 6 6 7 6 7 6 4 4 5 3 1 2 3 4 4 3 1 4 6 8 12 12 11 11 11 10 10 9 8 8 8 7 7
37 31 24 16 8 8 12 12 10 9 6 5 4 3 2 1 3 3 2 3 2 2 2 2 6 7 5 5 2 2 2 2 4 4 3 5 6 5 5 6 5 1 3 5 4 6 6 3 5 6 5 8 11 8 6 6 5 4 4 6 5 4 6 4 3 3 2 3 3 1 2 3 3 4 6 8 9 8 8 6 5 6 6 8 8 8 8 8
32 24 16 10 6 3 9 12 13 11 5 4 3 1 1 3 3 2 2 3 2 3 3 4 7 7 4 4 3 2 2 3 4 3 3 5 6 5 4 4 6 2 2 6 2 4 7 3 5 7 5 10 11 5 6 9 5 3 3 6 5 5 5 3 3 6 4 3 3 1 3 4 4 5 4 3 5 4 6 6 6 7 8 9 9 10 10 9
27 20 10 7 9 3 7 12 14 14 8 3 1 2 3 3 2 2 2 2 2 3 6 7 4 3 2 1 1 2 3 3 4 3 2 4 4 5 4 3 4 4 4 5 2 4 6 3 4 7 6 9 12 8 6 7 6 3 3 4 4 4 6 5 2 1 4 3 4 1 3 4 3 5 5 4 3 1 5 7 7 8 10 10 10 10 10 10
24 17 7 6 10 5 6 13 17 15 7 2 2 4 3 3 4 3 2 1 1 1 5 5 1 1 1 1 1 1 2 1 5 3 1 3 2 3 5 3 4 6 6 4 2 3 5 1 4 9 9 7 9 11 7 6 7 5 5 6 2 3 3 4 2 2 4 3 4 1 4 3 1 3 5 5 3 2 4 6 7 7 10 11 10 10 11 10
20 12 6 6 9 5 7 17 19 12 4 2 5 5 3 3 4 3 2 2 1 2 4 3 1 1 0 1 1 2 1 1 4 4 1 2 2 3 6 4 4 7 7 4 2 2 4 2 4 7 11 5 5 10 7 5 5 5 6 6 3 4 2 1 3 1 2 2 3 2 2 3 4 4 4 2 6 7 6 7 7 9 11 11 10 11 11 11
14 5 2 5 9 5 10 19 15 7 2 3 4 4 3 4 5 5 4 4 3 3 4 3 2 1 1 2 1 2 2 3 5 4 2 2 1 3 6 4 3 6 6 6 3 2 1 4 1 5 9 6 5 7 8 6 2 2 6 6 2 3 4 3 3 3 3 3 2 1 2 3 5 6 5 8 9 9 9 9 9 12 14 12 11 11 11 11
7 2 1 5 10 2 13 16 8 3 3 3 3 3 3 4 6 6 6 5 3 3 3 3 3 2 1 1 0 1 2 4 5 4 2 2 1 3 6 5 3 4 6 6 4 1 1 2 3 4 5 6 5 7 9 9 6 3 6 7 3 1 3 3 1 2 3 3 3 2 1 5 6 5 7 9 8 11 14 13 12 12 13 12 11 11 11 11
4 1 1 5 7 6 14 9 2 3 3 3 3 5 5 5 6 6 6 6 5 5 5 4 4 3 2 1 0 1 1 2 4 4 2 3 3 2 5 7 5 3 5 4 2 2 1 1 3 5 5 5 5 4 6 9 8 6 5 6 5 3 4 4 2 1 2 2 3 4 2 7 6 4 6 6 6 9 11 10 8 8 10 10 9 10 11 10
2 1 2 6 2 9 9 2 3 2 3 4 4 5 6 7 6 6 4 5 6 6 5 4 4 4 3 2 2 2 2 2 3 3 3 4 5 3 5 7 7 5 4 3 3 4 3 2 2 3 4 5 4 4 8 11 8 6 4 5 5 4 5 6 4 3 2 1 1 3 2 6 6 4 4 5 3 6 6 6 5 5 7 8 8 9 9 9
2 3 5 5 5 9 2 2 3 2 4 5 5 6 7 6 4 4 3 3 3 3 3 3 3 3 2 2 2 2 2 1 2 3 4 3 5 5 6 6 7 6 4 3 4 3 2 2 1 1 2 2 1 2 6 9 8 5 4 4 6 5 5 6 5 4 4 3 1 2 2 6 6 3 3 4 4 5 6 7 7 6 6 7 8 9 8 8
3 4 4 3 7 8 1 2 2 4 5 6 8 8 6 4 4 5 4 3 2 1 2 3 3 2 2 3 3 2 1 1 1 1 2 3 4 6 7 7 7 6 4 3 3 3 2 1 3 4 5 4 2 4 3 5 7 6 5 5 6 6 6 4 3 4 2 4 4 4 3 7 6 3 2 1 4 5 5 6 7 7 7 7 7 8 8 8
4 2 2 3 5 5 1 1 2 5 5 8 10 8 5 3 4 5 6 6 4 3 3 2 2 2 3 3 3 2 1 2 2 2 0 1 2 3 6 8 8 6 4 5 3 3 3 2 3 5 6 7 6 4 3 4 5 4 4 7 8 7 8 5 3 4 2 3 4 5 4 7 7 5 5 3 5 5 5 6 6 7 8 8 8 8 9 8
2 1 3 3 2 3 2 2 2 3 4 6 7 6 3 2 3 4 5 5 4 4 3 2 4 4 3 2 1 1 1 1 1 2 2 1 3 2 3 8 9 7 6 8 5 3 2 1 2 5 6 7 7 5 4 6 6 4 6 10 9 7 8 6 5 4 4 3 3 5 6 4 9 7 4 2 3 5 5 6 7 7 8 9 9 9 9 8
2 1 3 4 2 2 2 2 1 2 4 4 3 4 4 5 5 2 3 2 1 2 2 3 3 2 1 2 0 1 1 1 1 1 2 2 3 4 2 6 9 9 10 9 6 2 2 3 2 5 5 7 7 5 7 10 8 7 9 11 11 9 8 7 5 5 6 6 3 8 5 3 8 8 5 5 5 4 5 5 6 8 9 9 9 10 10 10
2 1 2 4 3 2 3 3 4 6 8 5 1 3 6 8 7 3 2 2 2 1 2 2 2 3 3 2 0 1 1 1 1 2 2 1 1 4 4 2 6 10 10 5 2 3 1 3 3 2 4 7 7 6 8 12 9 8 11 12 11 10 10 9 8 7 8 7 6 7 8 7 8 7 4 5 5 3 3 4 5 7 9 10 11 11 11 12
2 2 2 3 3 4 6 9 9 9 8 6 2 2 5 8 9 4 1 1 3 1 2 2 3 3 3 2 1 2 3 3 2 2 1 1 1 1 1 1 3 7 7 4 1 3 2 4 3 1 6 7 5 6 8 12 10 8 11 13 12 11 12 12 8 7 7 6 5 5 7 8 9 6 5 5 4 4 5 6 7 8 10 10 12 12 13 13
2 3 3 2 4 6 6 7 7 6 5 4 3 4 4 6 9 8 1 3 3 0 3 2 5 4 3 5 5 4 5 5 4 2 2 2 2 2 2 2 3 5 6 4 2 2 2 3 1 2 3 5 1 3 7 10 13 10 10 11 11 11 10 7 4 4 4 3 1 5 4 6 6 4 3 3 4 7 7 8 8 8 10 11 11 12 13 13
5 6 6 5 5 5 5 4 5 5 4 3 4 6 7 7 10 12 5 5 5 3 3 4 6 4 3 6 8 8 8 5 5 6 6 5 3 2 1 1 3 6 6 4 2 2 3 3 2 3 1 4 2 2 6 8 11 10 7 8 10 10 7 4 3 5 7 4 3 5 2 5 5 2 2 2 5 8 9 9 9 8 10 12 12 13 14 14
8 7 5 4 4 4 5 6 5 4 3 2 5 8 8 9 11 11 6 2 4 6 7 6 6 4 2 4 8 9 8 7 7 8 7 6 5 3 3 4 1 5 5 3 1 2 3 3 2 2 2 4 3 3 6 7 8 5 6 8 9 7 5 4 2 4 7 7 7 5 5 6 5 4 4 3 5 7 8 9 9 10 11 11 12 13 13 12
Wind_Direction
341 341 341 340 339 338 336 334 333 331 331 330 329 328 325 324 320 318 320 321 322 321 323 324 322 325 328 330 331 329 324 318 314 311 294 279 296 321 326 314 295 280 273 277 267 266 308 303 198 147 120 122 154 207 202 176 126 130 138 185 198 181 190 183 187 191 169 214 235 238 174 155 240 324 276 335 20 59 52 19 15 30 41 70 106 127 134 139
341 342 341 340 338 337 336 333 329 326 324 324 327 328 326 326 323 323 322 320 320 317 321 321 321 325 327 330 330 330 326 316 309 294 281 289 335 339 336 329 301 268 243 246 249 231 184 225 155 138 117 131 195 194 190 194 168 173 139 189 213 186 197 191 179 184 177 201 220 200 139 133 170 281 343 342 344 54 79 4 23 66 72 87 110 124 131 135
340 342 341 340 337 336 335 331 328 327 326 321 320 322 323 324 324 324 322 322 321 317 319 316 321 325 326 328 328 332 327 316 302 276 282 358 351 339 343 332 296 258 223 224 230 218 209 207 147 135 127 164 203 169 178 209 194 183 138 198 227 201 212 217 184 199 215 201 122 142 154 40 223 231 7 352 329 244 175 196 112 111 122 116 118 125 131 134
340 341 340 339 336 334 332 331 332 333 333 328 324 320 319 320 322 322 321 322 320 320 320 314 318 324 326 327 327 332 329 314 288 181 83 20 323 347 356 342 302 247 216 212 211 217 242 245 180 128 129 178 236 145 171 217 195 177 177 201 220 189 211 237 216 217 227 195 142 150 3 333 275 195 107 118 4 297 240 204 181 171 150 136 133 134 136 137
342 341 339 338 335 334 333 333 334 334 334 332 330 325 322 320 319 319 317 317 319 320 321 316 315 320 328 325 326 335 333 313 276 134 66 359 331 347 358 359 339 234 206 197 197 210 239 240 168 114 117 170 191 152 207 222 168 177 220 205 190 160 203 239 225 228 230 208 192 360 331 284 264 77 133 134 194 260 229 203 190 172 153 144 142 141 144 144
343 342 340 337 336 335 333 332 331 331 331 330 330 328 326 322 317 317 313 313 318 318 321 321 315 319 326 324 328 334 329 292 295 156 37 345 331 337 352 2 9 216 193 177 169 180 208 206 142 144 135 160 190 190 230 225 165 209 257 214 190 171 204 232 205 220 217 217 255 251 242 225 33 319 195 153 198 230 237 228 183 145 138 142 142 144 152 157
343 341 339 337 336 333 332 331 330 329 329 329 327 326 325 322 319 315 313 312 314 316 321 322 317 318 322 327 334 338 163 275 268 225 282 319 321 331 343 352 15 61 192 179 160 160 168 165 164 160 137 160 205 199 217 223 186 213 255 253 218 198 213 227 206 218 185 206 235 225 291 41 323 294 294 228 236 243 275 218 120 119 133 141 144 155 164 168
344 342 340 338 335 333 332 330 331 330 328 327 325 325 323 321 320 315 313 310 310 313 317 323 320 317 323 334 343 325 244 260 265 264 284 302 313 328 336 339 359 15 198 187 176 172 152 155 178 162 156 203 192 181 195 202 222 215 223 256 233 212 228 238 254 272 191 217 235 143 277 236 227 249 314 286 278 135 105 109 116 124 135 144 154 166 171 171
344 342 341 338 336 334 332 331 330 329 327 327 325 324 320 317 316 315 313 306 305 309 310 320 318 316 324 331 352 307 264 263 282 288 286 301 315 321 328 328 334 350 6 354 323 188 167 165 195 175 171 206 179 181 186 184 226 211 197 223 241 244 251 233 252 267 225 220 184 164 254 253 245 219 298 291 120 123 118 119 128 134 142 156 168 171 169 165
342 341 339 337 336 334 333 331 327 327 327 326 324 322 319 317 314 312 312 305 302 303 305 313 313 319 321 303 20 285 269 284 299 288 292 311 315 314 318 319 323 338 348 347 349 215 183 174 197 167 149 195 177 189 176 178 213 192 183 212 230 246 263 216 220 252 253 231 183 182 247 266 266 168 265 291 130 133 122 127 142 145 155 165 169 169 165 169
340 338 337 335 334 334 333 329 327 328 327 325 324 322 320 320 318 311 310 305 299 300 302 305 309 316 310 282 247 254 266 288 280 298 310 310 311 310 309 308 312 321 322 334 330 284 266 233 218 106 149 195 173 192 206 191 201 181 170 203 235 243 263 243 236 245 270 271 191 168 244 293 360 182 228 190 143 140 132 143 157 157 163 162 163 168 171 184
337 335 334 333 331 331 330 329 330 330 328 326 324 322 320 319 318 310 305 304 300 300 301 301 305 310 301 279 243 242 253 280 291 302 306 306 307 306 304 303 299 288 277 297 294 291 292 282 289 186 224 190 161 189 229 199 166 191 157 166 249 251 260 239 234 221 181 235 176 140 296 305 276 222 234 165 142 142 140 152 163 163 164 160 164 171 181 188
335 332 331 330 328 328 327 328 330 328 328 323 318 319 316 314 314 309 303 302 299 298 301 300 301 305 299 271 247 251 263 282 293 298 303 307 306 306 308 301 293 279 257 246 267 282 288 293 283 220 258 99 183 213 323 141 136 191 147 156 234 273 273 233 200 177 176 205 156 139 271 277 255 252 245 161 144 144 148 158 163 165 165 164 171 178 190 188
334 332 330 329 327 326 325 325 326 325 324 319 318 318 311 310 313 308 299 296 296 297 301 301 298 301 285 262 268 271 277 284 286 290 303 312 305 311 324 313 298 284 253 248 265 283 286 283 266 234 275 199 239 328 11 357 63 153 148 173 195 196 266 266 193 156 175 216 143 139 242 253 265 272 244 176 156 149 154 165 162 161 167 170 178 186 196 194
335 334 331 329 328 327 325 323 324 323 322 319 321 318 310 311 314 308 296 292 294 294 296 300 288 283 283 274 278 285 290 282 280 294 318 320 306 308 331 334 312 275 250 255 263 280 281 266 223 210 260 199 223 356 17 339 358 132 170 200 186 182 262 297 242 166 171 228 138 145 229 260 262 261 220 175 167 154 155 165 163 165 171 172 184 195 198 199
335 334 333 331 329 328 325 323 322 322 322 322 322 317 312 315 316 307 292 286 286 284 287 294 269 228 244 279 291 300 289 265 284 318 329 320 304 286 301 315 302 255 230 244 253 262 242 200 172 188 195 158 163 113 58 346 300 309 177 183 179 173 229 297 279 192 173 163 150 175 200 256 267 252 191 167 169 161 155 162 165 171 176 177 189 198 197 197
335 334 333 332 331 328 325 323 322 322 323 323 323 320 317 319 318 306 290 278 274 265 247 244 257 236 244 268 298 306 285 278 311 324 320 316 305 282 280 300 295 247 194 220 222 224 199 174 177 189 176 134 141 129 125 214 225 287 93 146 185 162 178 232 283 252 177 163 192 200 200 228 262 270 179 179 168 161 161 166 171 176 180 184 192 199 200 200
335 333 332 331 330 329 325 323 322 323 325 325 323 321 321 325 327 325 325 170 156 166 227 233 248 292 254 252 276 300 308 318 320 315 310 321 324 281 248 228 288 297 104 187 199 171 169 180 146 130 172 178 168 161 181 206 179 158 148 144 157 172 185 198 229 239 168 170 188 179 206 239 257 300 175 200 177 164 170 174 178 181 184 189 195 202 203 203
334 333 332 330 330 328 324 324 325 326 328 326 325 325 328 342 344 7 89 114 112 98 217 208 179 204 284 264 252 288 303 310 314 303 293 339 3 321 223 217 288 129 130 164 193 176 166 143 135 168 197 193 184 170 177 183 148 152 159 151 146 167 211 208 230 241 158 147 179 175 198 232 249 244 181 203 190 172 176 175 179 184 186 194 200 207 206 208
335 333 333 331 330 328 325 327 327 328 330 328 331 338 346 4 347 1 97 142 205 222 231 197 193 224 283 282 271 301 307 307 306 265 256 314 330 332 252 209 23 117 154 160 175 187 160 170 201 199 195 179 167 161 164 145 137 144 135 155 164 152 230 234 233 262 168 146 197 187 195 219 234 232 189 186 184 174 177 177 184 188 189 199 203 210 211 213
335 334 334 332 330 328 326 327 326 326 327 326 341 1 358 341 325 314 317 254 232 232 243 229 214 231 253 263 273 322 324 310 289 268 282 292 287 301 270 182 142 169 173 145 149 180 166 200 213 195 173 157 152 157 167 139 101 117 131 150 168 153 223 240 215 266 205 169 221 185 188 219 230 230 184 171 178 180 182 181 188 193 194 201 205 211 214 215
336 335 333 332 331 329 326 325 324 324 322 322 355 23 229 269 264 282 306 285 251 228 237 242 229 242 251 257 268 282 292 276 283 287 290 282 198 177 192 170 175 182 154 141 162 173 197 215 194 167 153 140 141 149 169 181 115 90 106 124 144 195 242 277 272 301 135 177 243 182 180 226 253 263 184 181 185 189 193 190 191 192 194 199 204 207 207 210
336 334 332 331 332 330 326 323 323 322 321 327 326 296 261 301 281 278 286 292 284 233 225 240 229 242 252 261 263 235 213 235 267 281 266 185 174 180 172 176 183 158 150 181 192 175 202 217 162 152 140 129 142 150 156 191 171 104 99 115 152 213 163 236 276 319 21 161 178 159 168 255 290 328 234 204 200 203 206 208 209 203 201 203 205 204 201 205
334 333 331 329 331 333 326 320 319 313 321 330 315 284 311 320 292 286 277 280 290 259 219 223 214 230 245 257 235 188 206 211 210 270 241 178 181 183 179 176 165 170 184 190 189 182 232 237 160 144 139 136 146 159 157 175 191 147 139 143 167 203 166 189 265 333 350 24 111 129 68 314 273 243 250 222 203 219 211 214 226 225 217 215 215 210 206 209
331 331 330 328 331 333 326 318 312 294 322 323 308 310 350 326 286 276 270 287 280 267 229 217 201 230 237 225 173 173 207 220 208 249 239 181 180 172 186 179 169 197 189 170 171 192 257 258 161 147 155 150 148 168 170 163 161 174 195 181 174 188 201 245 334 20 48 298 263 143 146 294 284 245 238 201 194 219 206 210 222 223 216 213 216 211 208 213
327 328 327 327 330 330 328 319 296 308 324 318 288 345 349 345 335 198 180 299 276 268 51 205 164 215 233 181 167 165 80 247 215 217 227 227 225 189 189 186 191 207 171 149 175 195 231 255 168 162 162 151 154 173 181 162 146 190 218 187 173 164 152 271 349 51 123 226 281 105 169 252 309 278 235 185 192 216 206 214 222 221 215 212 215 211 207 211
324 325 325 325 328 328 325 305 298 308 309 292 256 344 349 355 12 152 148 305 270 257 90 229 133 209 249 170 168 160 120 296 209 201 213 220 229 246 190 189 176 193 153 145 199 182 182 205 192 173 164 155 166 175 185 161 141 212 212 172 169 155 142 155 110 95 193 234 322 16 137 210 284 273 244 164 182 219 225 225 223 219 217 216 218 215 210 211
322 324 323 322 323 321 311 296 294 283 270 274 264 291 339 353 332 140 8 299 249 138 106 217 228 285 286 169 177 202 246 10 38 202 197 193 201 154 170 210 182 178 173 170 195 177 173 191 193 175 173 176 173 161 164 146 139 216 193 160 171 165 155 159 140 256 301 38 318 312 118 177 262 278 295 144 186 224 227 224 222 219 217 216 218 217 215 213
322 323 322 321 320 318 311 288 267 262 272 274 251 282 327 351 346 61 70 277 225 149 121 162 255 310 319 159 195 248 296 6 14 266 160 173 197 193 188 216 173 174 193 178 183 188 179 190 180 164 178 180 158 148 153 147 154 190 153 124 125 130 144 154 165 228 346 50 243 260 221 175 270 279 177 155 210 229 227 224 221 220 219 217 217 215 212 207
322 321 321 321 318 316 314 272 261 274 274 264 264 287 317 332 77 60 73 279 263 188 196 210 262 19 128 151 224 251 264 284 309 59 131 177 202 213 274 218 151 154 183 155 181 227 224 174 171 164 177 167 144 145 160 162 161 146 128 96 76 69 101 129 114 108 102 269 244 231 204 169 267 275 197 184 217 214 211 218 216 217 221 218 214 210 205 198
323 321 321 319 312 304 295 266 277 277 243 248 265 277 342 16 70 133 217 253 267 275 283 231 259 53 180 206 246 242 234 250 269 150 181 219 161 186 254 218 139 121 138 137 189 242 286 154 183 163 152 151 140 150 179 177 161 139 127 115 113 48 36 70 10 71 161 252 258 221 192 156 221 263 228 219 232 215 204 210 206 208 215 213 206 202 196 187
323 322 319 316 307 282 239 229 286 144 165 189 200 138 75 38 351 223 243 311 282 257 333 270 255 248 240 245 233 228 219 230 231 176 180 183 164 195 209 195 169 142 169 172 168 223 264 219 230 169 155 164 154 151 179 191 173 151 141 136 138 135 75 166 245 203 194 251 252 196 164 157 238 254 248 236 235 222 210 213 210 209 212 206 194 190 186 175
324 322 321 320 309 260 226 218 154 121 129 143 134 75 72 78 257 231 239 294 258 249 312 277 269 264 249 257 254 221 219 223 205 181 171 167 168 202 218 232 250 143 160 160 145 177 221 270 249 195 165 174 170 163 174 190 179 162 157 156 152 145 162 194 227 219 215 252 238 183 161 257 268 263 248 238 241 229 217 221 216 206 197 182 174 177 177 174
327 326 328 329 310 256 226 210 181 153 124 122 116 45 69 176 257 249 254 247 240 291 283 281 300 293 255 240 255 201 200 233 195 172 154 161 172 198 219 235 245 320 106 143 144 171 185 231 219 196 177 174 180 180 157 140 153 168 142 137 151 156 158 181 197 175 196 256 266 186 167 188 203 235 233 238 260 248 216 212 182 162 152 148 158 168 174 179
332 337 341 348 350 260 208 193 190 192 169 104 91 97 196 245 256 252 261 244 264 295 279 293 300 297 269 222 240 236 215 217 194 186 174 172 183 189 197 220 216 227 154 160 167 170 175 243 226 195 192 173 174 179 131 120 145 194 124 124 170 181 146 130 171 169 167 228 256 198 204 213 212 254 276 280 284 247 184 166 143 148 148 147 163 175 178 183
338 348 360 13 16 6 195 185 183 185 174 113 95 198 220 238 231 228 243 241 268 299 302 301 277 259 283 223 231 256 247 213 173 186 195 172 187 178 174 215 189 184 184 157 148 162 161 269 240 181 198 192 169 167 169 154 158 170 149 169 198 166 125 114 165 124 99 187 248 208 223 276 305 288 313 23 31 90 158 160 158 161 157 159 174 180 181 184
340 345 351 353 355 351 189 176 169 166 154 128 202 222 221 221 226 226 230 239 197 270 306 308 237 183 295 290 235 183 257 245 158 168 145 151 193 169 165 209 177 180 202 166 146 179 152 245 248 176 188 221 173 162 185 181 153 143 181 202 177 98 91 103 135 17 64 176 262 231 194 241 263 263 315 21 67 194 183 167 161 161 165 174 183 180 179 180
331 327 320 328 340 334 188 172 161 151 136 192 234 243 220 207 226 214 213 277 267 256 280 281 223 174 154 283 278 154 233 270 149 163 145 144 211 172 161 193 194 190 202 162 139 258 153 160 272 192 181 202 166 161 185 207 172 151 172 186 147 137 178 113 132 135 115 179 271 301 233 227 196 223 285 264 199 198 189 175 168 172 179 183 182 178 177 175
327 324 316 339 350 339 180 167 152 136 180 226 241 249 222 231 250 240 244 269 267 258 266 247 220 190 189 254 233 142 185 184 152 155 168 160 222 199 174 179 204 194 175 147 154 295 124 134 230 216 180 154 152 176 186 197 208 129 154 170 163 148 165 165 151 152 157 176 220 273 300 254 226 217 224 224 206 183 179 185 188 188 188 185 179 176 176 174
329 333 300 349 352 339 164 158 146 152 219 234 247 252 255 266 266 254 246 246 229 223 245 248 233 205 228 265 181 141 189 177 155 144 176 205 202 204 194 181 182 180 157 157 182 253 15 125 163 195 170 148 177 205 187 174 168 146 156 170 171 87 117 148 154 119 130 149 180 178 225 258 251 209 205 223 205 183 187 190 194 194 187 183 179 175 175 172
324 334 260 349 357 146 149 146 176 207 229 261 259 253 269 275 269 266 250 230 224 229 236 252 260 259 290 315 208 209 221 177 160 144 166 211 190 185 214 197 176 153 141 150 198 207 197 124 149 167 173 174 189 184 157 166 170 154 152 174 172 133 117 139 184 252 115 141 174 158 193 262 259 204 215 235 199 190 200 194 192 192 182 181 179 173 173 168
311 328 286 331 358 152 147 176 231 210 242 260 260 259 276 280 271 277 264 226 226 231 228 238 251 251 260 256 205 198 203 171 160 156 155 192 200 204 226 209 177 147 134 153 207 208 168 112 119 174 188 191 191 153 149 162 165 147 153 178 166 139 129 143 176 206 157 150 167 133 170 266 259 206 222 247 202 184 191 181 175 178 174 174 171 168 167 163
317 303 301 307 187 164 157 286 223 224 243 258 278 273 277 279 271 287 289 233 230 226 206 226 246 235 219 232 230 208 190 156 180 179 153 177 221 217 214 202 168 146 139 168 200 200 162 117 90 83 129 144 38 55 135 151 150 160 199 177 160 167 156 149 169 176 168 187 165 106 246 271 273 256 246 243 197 157 160 167 164 161 161 162 161 163 163 160
311 280 299 298 189 177 252 289 259 284 273 284 292 283 276 258 248 274 278 251 244 237 229 237 237 207 191 212 230 237 162 131 230 248 161 179 228 210 193 186 178 175 180 196 194 177 197 207 94 107 129 144 95 58 110 169 170 182 199 175 171 170 139 121 131 128 162 207 157 136 231 258 271 313 9 130 151 142 154 163 155 151 152 152 152 156 161 159
312 254 274 291 202 189 217 255 282 294 295 303 300 295 292 257 239 256 265 270 259 241 256 256 232 234 226 209 211 265 319 162 216 302 226 198 266 227 185 180 191 196 190 206 204 144 172 197 111 126 156 172 178 170 171 183 173 169 173 172 183 174 152 150 122 118 189 226 147 148 214 262 286 328 21 74 137 142 154 151 141 144 146 145 148 154 160 164
347 317 309 313 212 195 228 239 257 272 295 316 311 304 301 279 274 253 249 267 252 226 240 250 250 264 252 218 187 10 317 221 232 321 342 267 280 288 178 180 197 199 187 207 216 112 104 229 154 149 171 183 193 193 150 132 146 162 163 168 184 188 169 147 111 141 184 164 167 209 203 255 291 295 316 292 179 164 167 155 143 142 142 143 150 153 157 165
16 2 329 334 307 259 259 225 202 264 292 314 319 313 305 297 304 270 199 218 246 234 239 227 238 259 217 215 108 76 300 278 221 257 293 254 259 301 282 201 200 197 190 206 222 132 53 315 210 165 193 209 209 196 151 141 154 162 154 169 186 186 167 149 153 191 165 132 240 249 185 182 271 267 260 255 226 192 177 163 147 143 144 146 150 150 153 162
6 353 325 341 322 297 309 300 289 298 302 299 273 297 306 309 319 324 212 255 326 270 236 244 248 235 230 237 141 126 233 290 209 231 270 248 263 326 321 233 191 194 189 183 197 154 119 290 247 207 256 243 230 221 169 151 158 160 155 170 181 169 166 174 190 197 161 160 233 230 170 191 249 258 252 237 219 184 139 137 132 134 140 145 148 151 156 166
355 310 304 335 302 280 286 287 291 303 307 308 301 285 299 313 320 319 214 281 329 270 174 295 282 237 212 212 170 169 195 188 201 250 262 235 264 310 350 106 159 186 177 142 137 160 163 265 248 242 287 272 243 237 195 152 147 160 163 168 170 169 179 187 194 193 177 197 225 177 176 227 244 236 242 235 197 142 118 124 131 138 146 150 155 160 166 176
4 310 316 315 284 278 275 282 297 304 304 318 333 319 308 312 319 322 278 200 270 285 130 210 263 248 205 199 194 210 218 186 162 197 200 180 247 250 191 153 145 160 160 153 178 178 177 251 287 87 288 294 323 224 207 160 147 156 167 168 159 159 173 178 170 165 175 237 241 130 168 265 265 224 227 235 156 129 128 136 141 149 154 155 161 169 175 182
334 294 303 306 297 301 299 303 314 308 314 350 342 329 328 316 314 319 302 201 201 206 182 221 263 275 243 211 205 223 238 214 179 202 206 196 213 251 278 259 145 148 161 159 146 152 173 237 328 63 201 289 349 146 186 157 136 139 160 167 152 148 164 178 175 177 179 178 124 109 162 261 263 204 139 144 145 141 146 149 148 155 161 162 170 178 184 187
334 293 291 293 286 300 312 319 322 312 323 347 323 321 319 306 309 319 318 240 212 226 232 249 277 297 295 243 222 216 216 215 220 223 213 215 234 249 274 283 175 136 156 161 122 144 161 195 273 85 171 274 325 119 140 115 109 144 198 182 157 144 151 154 172 204 183 150 132 155 214 233 219 167 131 146 164 161 163 161 156 159 164 169 179 185 189 190
Height
820 819 818 817 816 815 814 813 812 811 811 809 809 808 807 806 805 804 803 802 801 800 799 798 796 795 793 792 790 788 785 782 778 778 776 770 768 769 767 765 763 763 764 765 765 764 765 765 766 767 768 769 771 771 771 771 771 774 781 786 788 789 784 778 777 775 772 768 765 764 765 767 769 767 762 761 764 767 769 769 768 766 765 765 766 767 770 775
820 819 818 817 816 815 814 813 811 811 810 809 808 807 806 805 804 803 802 801 800 799 798 797 795 794 793 791 789 787 784 780 778 775 770 767 768 767 765 764 761 761 762 763 764 764 764 764 764 766 767 770 771 770 771 770 770 774 781 784 783 780 774 768 768 768 767 764 763 764 766 766 768 767 762 764 769 770 772 773 772 771 771 770 769 771 773 776
820 819 817 816 815 814 813 812 811 810 809 808 807 806 805 804 803 802 801 800 799 798 797 796 794 793 792 790 788 786 782 779 776 770 766 766 767 766 764 761 759 758 759 760 762 763 763 763 763 765 767 770 771 770 771 770 770 773 778 782 778 773 769 766 766 765 763 762 764 766 766 766 766 764 763 766 770 770 773 774 774 774 775 774 773 774 775 777
819 818 817 816 815 814 813 811 810 809 808 807 806 805 804 803 802 801 800 799 798 797 796 795 794 792 791 789 788 785 782 778 770 764 764 765 764 764 762 758 756 756 756 758 761 763 763 763 763 763 767 770 770 770 772 769 769 771 773 775 772 769 769 766 763 762 761 763 765 765 766 767 763 762 763 766 771 771 769 769 769 771 773 774 775 775 776 777
819 818 817 816 814 813 812 810 809 808 807 806 805 804 803 802 801 800 799 798 797 796 795 794 793 792 790 789 787 785 783 774 763 761 763 763 762 761 760 756 754 754 755 756 759 762 762 763 763 763 766 770 770 770 770 766 766 770 769 768 766 768 769 763 761 761 761 763 764 766 767 765 762 762 763 766 771 769 764 763 762 764 768 770 772 774 776 777
818 817 816 815 813 812 811 809 808 807 806 805 804 803 802 801 800 799 798 797 797 795 794 793 792 792 790 788 787 786 784 770 759 761 760 760 760 759 759 757 755 754 756 756 757 760 762 763 763 764 766 768 769 769 768 764 765 769 768 765 764 765 764 760 759 760 760 762 764 765 764 763 763 764 763 764 766 763 759 759 758 762 767 768 770 772 773 774
818 817 815 814 813 811 810 809 808 806 805 804 803 802 801 800 799 798 797 796 795 794 794 792 791 791 789 788 786 786 787 772 759 760 759 758 760 759 759 758 757 756 757 757 756 758 761 762 763 763 766 767 768 768 766 764 763 768 769 765 763 763 761 759 759 759 760 762 762 762 762 763 765 765 765 763 761 760 759 758 759 763 766 767 770 770 769 769
817 816 815 813 812 811 809 808 807 806 804 803 802 801 800 799 798 796 795 795 794 793 793 791 791 790 788 788 786 787 786 770 756 759 759 758 759 759 759 758 758 757 758 758 756 757 759 761 762 762 765 765 765 765 764 765 766 767 768 765 762 761 760 759 759 759 761 762 761 763 764 764 763 764 764 761 760 760 759 758 760 763 766 769 769 768 767 768
817 816 814 813 811 810 808 807 806 805 803 802 801 800 799 797 796 795 794 793 792 793 791 791 790 789 789 787 788 788 776 761 757 759 758 758 758 758 759 758 758 757 758 758 757 757 757 759 760 759 762 762 763 763 761 766 767 763 764 763 761 760 759 759 759 759 761 761 761 763 765 764 761 763 764 761 761 761 759 760 761 763 767 769 768 767 768 769
816 815 814 812 811 809 808 806 805 803 802 801 800 798 797 795 794 793 792 792 791 791 790 791 789 788 789 786 790 788 766 756 759 757 757 758 757 757 757 758 758 758 758 757 757 757 756 757 758 757 759 760 761 762 760 763 762 758 760 760 760 760 758 758 759 759 760 760 760 763 765 762 761 764 765 763 762 760 761 764 763 763 765 767 768 768 769 770
816 814 813 811 810 808 807 805 804 803 801 800 798 797 795 794 792 791 791 790 789 789 789 789 788 788 788 786 791 783 761 756 758 756 757 757 755 756 755 756 757 758 758 757 757 757 757 756 756 758 759 759 760 761 759 758 757 756 757 760 760 759 759 758 759 759 760 760 758 760 762 761 763 765 762 761 762 760 762 766 765 764 764 765 768 768 769 768
815 814 812 811 809 807 806 805 803 802 800 799 797 795 794 792 791 790 789 789 788 788 788 787 788 787 786 786 782 770 757 757 757 755 756 755 755 754 753 755 755 756 757 757 756 756 757 757 757 759 758 757 759 760 758 755 755 755 756 761 761 759 760 757 757 758 759 760 756 759 766 765 764 763 759 759 761 761 762 766 767 766 766 766 767 767 767 767
814 813 811 810 808 806 805 803 802 801 799 797 796 794 792 790 789 788 787 787 787 786 786 786 786 785 787 782 769 761 759 759 757 755 754 754 753 752 752 753 752 754 755 756 755 755 757 757 758 758 756 758 759 758 756 754 755 756 756 761 762 764 762 754 755 757 758 760 753 759 775 771 762 758 758 761 760 762 765 767 768 768 767 767 768 767 767 767
813 812 810 808 807 805 804 802 801 799 798 796 794 792 790 788 787 786 785 786 785 785 785 785 785 785 786 775 761 760 761 758 757 755 753 753 752 750 751 751 751 753 753 755 754 754 756 756 758 758 757 758 757 756 757 757 756 756 759 762 763 769 765 753 753 755 757 759 751 759 777 773 760 756 759 762 759 761 766 767 768 768 768 768 768 768 767 767
812 810 809 807 806 804 802 801 799 798 796 794 792 790 787 786 784 783 783 783 783 784 783 784 784 784 785 773 760 759 758 757 756 754 753 752 751 750 749 750 751 751 752 753 753 754 755 756 758 759 757 756 757 761 762 761 758 757 762 767 766 768 766 754 751 753 754 757 753 759 774 771 760 755 758 762 759 760 764 765 767 768 768 768 768 767 767 767
811 809 808 806 804 803 801 799 798 796 795 792 790 788 785 783 782 781 781 780 781 782 782 783 782 783 785 772 759 757 757 756 754 753 753 752 751 750 749 749 749 750 751 751 752 753 755 756 758 757 756 756 760 764 765 765 763 761 763 768 767 767 768 759 752 750 749 753 756 759 767 766 757 755 759 761 760 761 763 764 766 767 767 768 767 767 767 768
810 808 806 805 803 801 800 798 797 795 793 791 788 785 783 781 779 778 777 778 780 779 781 781 780 783 779 764 757 757 756 754 753 752 751 750 749 748 749 749 748 749 749 750 752 753 754 756 756 756 756 757 760 763 768 770 768 767 765 765 767 766 767 764 756 751 748 751 756 758 761 758 754 758 762 760 759 761 764 765 766 766 767 767 767 767 767 767
809 807 805 804 802 800 799 797 795 794 792 790 787 784 781 779 778 777 776 777 778 779 781 780 782 784 769 756 759 757 754 754 752 751 750 749 748 747 748 748 748 748 748 750 751 752 754 754 755 758 759 758 758 759 764 765 764 768 766 764 767 764 764 764 757 752 751 752 756 760 763 757 753 760 764 760 759 760 762 763 763 764 765 765 765 766 766 767
808 806 804 802 801 799 797 796 794 792 790 788 785 783 780 778 777 776 776 777 778 779 778 777 780 778 762 754 757 755 753 754 752 750 749 748 748 747 748 748 747 747 748 751 751 751 752 753 756 757 755 755 754 755 757 757 756 761 762 760 762 762 763 763 755 749 750 754 758 761 762 759 753 756 763 762 760 761 761 761 763 764 764 765 765 765 765 766
806 805 803 801 800 798 796 795 793 791 789 786 784 781 780 781 781 778 777 778 777 774 772 772 772 768 760 754 753 754 753 752 751 748 747 748 749 749 748 748 748 746 747 750 751 749 749 753 754 749 747 749 752 752 752 753 754 755 758 759 760 761 761 760 754 747 747 753 758 758 757 758 752 751 760 763 760 763 764 764 765 764 765 765 765 764 763 764
805 804 802 800 798 797 795 793 792 790 788 786 784 783 784 787 786 783 779 774 771 770 768 767 766 764 758 752 750 755 756 753 750 746 746 747 749 750 748 747 748 747 747 748 747 747 749 751 749 743 744 746 750 751 749 752 755 754 757 759 761 763 759 755 752 748 748 751 755 757 757 756 751 751 761 763 761 763 763 764 765 763 764 763 763 764 763 763
805 802 801 799 797 795 793 792 790 789 787 785 784 785 785 786 785 784 782 774 766 765 764 762 763 761 755 750 751 757 759 757 751 744 744 746 746 748 747 747 747 746 748 747 747 749 750 748 744 742 743 744 749 751 749 753 756 757 759 760 762 764 760 755 750 747 748 749 754 760 759 756 756 758 765 764 761 762 759 758 759 759 760 760 760 761 762 763
804 801 800 798 796 794 792 790 789 787 786 785 784 784 783 782 782 782 783 778 765 759 759 759 760 758 753 750 750 754 758 758 753 744 741 745 745 744 745 747 747 745 747 746 745 750 751 746 741 741 741 745 751 751 751 755 758 761 763 763 764 764 763 758 751 748 748 748 752 757 757 758 765 765 763 764 762 760 759 757 757 756 756 756 755 756 758 760
802 800 799 796 795 793 790 789 787 786 785 784 783 782 781 781 781 781 781 779 769 758 754 753 755 754 750 748 748 752 754 753 750 743 739 742 743 743 744 745 747 745 744 744 745 748 747 741 738 739 741 744 751 752 753 758 763 763 762 764 763 761 760 758 755 751 750 752 750 753 758 759 764 763 757 760 763 761 760 759 758 757 755 755 755 756 756 756
801 799 797 794 794 791 789 787 784 785 784 783 782 780 780 780 780 780 781 780 772 759 752 751 752 749 745 746 747 748 750 748 745 741 739 739 740 741 741 741 743 744 743 744 747 748 745 739 736 739 742 743 749 753 752 756 764 766 762 760 758 757 757 758 757 754 756 759 751 754 766 764 761 762 758 760 765 763 761 761 759 757 755 756 756 755 755 755
799 798 795 793 792 789 787 785 783 784 783 781 781 780 781 780 779 780 781 783 774 757 750 751 751 746 742 745 745 746 750 745 736 736 738 738 737 738 740 739 738 740 741 742 745 745 742 739 736 738 742 744 748 752 751 752 763 767 759 755 755 755 758 758 758 759 762 763 756 755 765 767 759 755 757 762 764 763 762 761 758 756 755 754 752 751 752 753
798 796 794 792 790 789 787 784 783 784 783 782 780 780 781 779 780 779 780 785 774 754 751 753 750 745 742 743 743 745 748 738 730 733 734 736 737 736 740 739 737 737 736 739 746 742 737 739 739 738 740 745 748 750 749 749 759 763 753 751 755 756 760 760 758 761 762 759 759 757 759 767 761 751 757 764 764 764 764 761 757 754 753 751 750 749 749 750
795 793 791 790 789 789 786 784 783 781 781 780 779 781 780 779 781 779 782 784 765 749 752 751 746 744 741 742 742 741 738 731 731 733 730 734 736 735 739 738 736 736 731 735 744 739 733 737 741 739 741 746 746 745 745 747 753 754 749 751 753 756 759 758 758 761 761 762 766 761 759 768 764 755 760 763 763 765 761 758 755 751 749 748 748 748 747 749
793 790 789 787 785 784 783 782 780 778 778 778 779 780 779 780 780 778 785 780 754 745 751 747 743 743 742 744 744 740 736 733 733 732 730 734 735 734 738 735 733 734 731 733 738 735 732 733 735 738 741 743 741 740 742 744 745 746 749 752 753 757 759 758 760 761 763 771 772 763 760 767 764 758 762 764 762 761 754 751 750 746 746 746 746 747 746 748
790 787 786 784 781 780 779 778 776 775 776 777 779 779 779 781 780 783 790 772 746 745 749 744 742 743 743 746 746 742 741 738 732 731 733 733 733 734 734 730 730 732 732 734 734 732 730 728 730 734 736 736 735 739 741 739 740 743 747 751 755 760 760 761 765 764 772 778 770 762 758 763 765 757 757 759 750 745 744 745 745 744 743 742 742 744 745 747
786 783 782 780 778 777 777 775 773 772 774 776 777 779 780 780 782 789 784 757 744 748 745 742 743 742 743 745 745 741 740 739 732 731 735 733 734 737 735 731 730 732 736 738 736 734 731 732 732 728 729 730 732 739 740 736 737 740 743 748 757 764 764 767 770 769 780 778 764 761 758 762 767 753 744 745 737 734 736 736 738 739 737 736 738 741 744 747
782 779 777 775 774 773 773 773 771 771 773 775 777 779 780 781 783 783 767 746 746 750 744 744 744 742 744 744 744 741 738 737 731 729 732 732 735 738 736 734 730 734 742 741 739 738 735 734 732 726 725 726 731 740 744 741 740 741 744 750 762 772 773 776 776 775 781 774 762 764 761 762 764 744 731 733 730 729 727 724 727 729 730 733 737 741 743 746
778 774 771 770 769 769 770 771 771 772 773 774 778 779 780 784 779 767 758 751 749 747 745 746 743 743 745 745 743 740 737 734 729 726 727 728 734 736 735 732 728 731 737 738 740 742 739 735 730 729 726 722 726 736 742 743 743 744 746 751 761 772 778 783 784 782 780 768 762 765 761 761 757 735 723 723 721 722 721 719 721 723 728 733 737 741 743 745
774 770 767 765 766 766 767 770 771 772 773 775 778 780 783 784 769 754 753 752 747 746 747 746 744 742 742 742 740 737 738 733 725 724 725 727 733 735 734 732 729 729 729 732 738 739 740 739 730 727 726 721 722 728 731 736 742 743 742 747 754 759 765 774 777 776 772 763 762 767 760 756 747 728 721 723 721 721 718 718 720 722 728 732 735 740 742 744
771 768 765 764 764 764 765 768 770 771 774 775 778 782 783 777 764 756 754 750 748 750 747 744 745 743 739 739 738 734 735 732 725 724 725 727 730 731 731 729 729 730 727 730 734 733 737 735 724 720 720 718 722 724 723 731 744 744 740 745 749 745 748 761 768 765 762 759 762 764 754 744 732 719 721 726 722 721 718 718 722 724 727 731 734 739 740 742
769 766 765 764 764 764 765 766 768 771 773 775 780 782 777 767 760 757 752 748 750 751 748 744 743 743 738 736 737 733 730 728 727 727 725 725 726 727 727 725 724 728 726 725 727 729 735 731 719 718 719 716 719 721 720 726 738 743 744 744 744 739 738 752 767 768 765 762 762 761 749 737 731 721 720 725 722 722 722 720 723 726 727 731 733 735 738 739
769 767 765 765 764 765 765 765 768 770 772 776 779 774 766 761 757 754 749 748 750 751 750 746 741 740 738 734 735 732 728 727 727 728 728 725 725 725 723 721 720 722 722 721 721 723 729 728 718 716 721 718 714 716 719 719 725 737 745 740 738 741 739 743 757 767 771 767 761 759 747 738 739 729 720 725 727 727 728 724 725 728 728 730 731 732 735 738
771 769 767 765 765 764 764 766 768 770 774 776 774 765 759 757 752 749 747 746 748 749 750 747 741 739 739 735 733 730 730 731 728 729 729 726 725 722 718 719 717 716 718 720 721 720 721 725 720 714 717 717 712 718 725 722 719 726 731 730 733 743 748 749 754 761 768 769 761 758 752 743 740 728 714 715 721 725 729 728 727 728 727 728 729 731 734 737
771 770 768 766 765 764 765 766 767 772 775 774 770 762 755 752 747 744 745 744 746 748 748 745 740 740 741 737 733 731 730 730 728 729 728 724 723 719 714 715 715 714 716 718 721 721 718 722 723 715 711 715 716 720 727 727 723 722 723 727 730 734 740 746 751 752 756 765 762 756 754 743 730 719 706 702 712 724 728 727 725 724 723 723 725 728 732 735
772 771 769 766 766 765 765 767 769 773 774 768 764 758 752 749 745 741 741 742 745 746 744 742 739 740 740 736 734 733 729 726 725 727 726 722 720 718 714 711 713 715 715 716 718 719 719 720 721 717 713 717 719 716 718 722 725 726 728 733 732 731 734 738 746 749 747 755 760 757 754 736 715 710 702 695 708 720 720 719 720 719 719 721 723 726 729 733
773 773 770 766 767 766 766 770 770 771 770 764 760 755 751 749 745 741 739 739 741 741 741 741 739 737 737 735 735 735 730 724 721 723 724 721 717 718 715 708 710 713 714 718 719 717 719 718 718 719 718 718 715 708 709 713 718 722 727 732 730 729 735 741 749 752 745 747 753 753 749 727 705 706 703 697 708 716 715 716 718 718 719 721 723 725 728 732
775 774 769 766 767 766 768 770 769 769 767 761 756 752 749 747 745 741 738 737 738 739 740 741 739 736 737 735 733 734 730 722 718 718 718 717 715 713 710 705 707 710 711 717 717 712 714 717 718 720 717 714 709 704 706 708 713 718 720 724 726 726 731 738 746 748 745 749 751 749 744 720 701 707 708 705 712 714 714 718 719 720 722 723 725 727 729 732
777 774 768 766 767 767 769 769 765 766 764 756 751 749 748 748 746 741 738 737 737 738 740 739 736 735 736 734 731 731 727 719 715 714 712 713 711 707 706 705 706 707 709 713 712 708 711 717 720 718 714 710 707 706 706 705 711 719 719 720 723 722 722 725 732 735 738 744 744 746 745 718 701 711 714 710 713 712 713 716 717 721 723 724 727 728 731 734
778 774 769 767 767 767 769 768 764 763 759 754 751 749 746 747 746 742 740 738 737 737 738 736 734 734 735 734 731 728 724 720 716 712 710 711 707 702 703 705 705 706 706 708 708 706 712 718 718 718 721 721 718 719 719 715 713 715 717 719 718 718 720 723 729 731 735 741 738 739 741 717 699 709 714 711 713 712 713 714 714 720 723 725 729 730 732 734
777 773 770 768 767 767 769 768 767 764 759 757 754 748 745 745 743 741 740 737 735 734 735 733 731 731 730 729 728 725 723 721 718 712 710 709 705 700 701 703 704 704 702 703 702 702 710 717 715 716 725 729 727 725 722 716 713 712 713 717 716 717 720 723 729 732 735 744 741 733 730 713 697 702 708 711 714 712 713 716 715 719 723 725 729 730 732 734
779 777 774 769 766 767 768 768 769 767 762 760 755 747 746 745 741 739 738 736 733 732 734 732 728 727 726 725 726 726 724 721 719 716 714 712 706 700 701 702 701 701 701 700 700 703 709 713 713 712 715 717 714 710 706 706 711 713 714 716 716 717 719 721 728 730 730 741 740 726 721 714 700 697 701 709 714 713 714 716 717 720 723 725 727 729 731 734
783 783 781 776 770 767 766 766 768 766 763 762 757 749 747 745 740 738 736 734 732 731 731 729 727 726 726 724 724 724 724 722 720 719 717 714 709 703 702 702 701 700 701 700 699 705 711 712 712 711 710 707 702 699 697 700 708 711 712 715 714 716 720 722 725 726 726 735 734 720 720 719 705 695 697 705 712 714 715 717 718 720 722 724 726 728 731 734
785 785 783 782 778 773 769 766 766 765 762 759 757 752 748 744 740 737 735 732 731 731 730 727 726 726 725 724 723 722 723 722 719 718 716 712 711 708 703 702 702 699 699 701 701 704 712 713 711 710 708 705 704 701 696 696 703 705 707 712 714 716 721 721 720 722 720 720 718 715 718 715 701 694 700 707 712 714 716 718 719 721 722 723 726 728 730 732
788 787 783 782 781 778 773 769 766 764 760 756 755 752 748 744 739 735 735 734 730 729 730 727 723 722 723 726 726 723 721 718 714 714 715 713 712 711 704 701 702 699 699 703 702 703 709 711 708 709 707 702 703 705 698 695 701 704 704 707 710 713 717 715 716 721 718 712 715 719 717 707 698 699 705 709 711 712 714 718 720 721 723 724 725 727 728 729
793 792 787 784 781 777 772 768 765 763 758 754 752 749 746 744 739 733 733 732 727 727 730 727 721 720 722 725 726 721 714 710 708 710 715 716 712 709 703 698 699 700 700 702 703 704 709 711 708 708 707 702 700 701 699 695 697 702 707 708 708 713 718 719 720 725 722 715 719 727 720 705 702 709 712 711 711 711 714 717 720 721 723 724 725 726 726 726
796 795 792 789 783 774 769 766 764 761 757 754 754 750 746 744 739 733 728 725 725 727 727 722 719 718 719 720 722 719 712 709 708 709 710 710 707 704 702 698 696 699 700 701 703 705 709 712 710 707 707 704 700 702 702 697 695 702 710 712 713 714 717 717 716 717 715 710 714 724 716 701 703 713 715 712 711 711 713 716 718 720 721 722 724 724 723 723
795 793 792 792 785 774 769 767 764 760 756 755 756 752 748 743 738 733 727 723 723 725 723 719 718 718 718 717 714 712 711 709 706 705 706 705 703 702 703 701 697 695 698 702 705 707 709 708 707 709 708 704 705 706 702 701 707 710 708 708 709 708 709 713 712 711 710 707 708 711 703 696 704 711 709 710 713 712 713 714 715 717 720 721 722 722 721 722